Regional Weather Roundup
Issued by NWS State College, PA

Home | Current Version | Previous Version | Graphics & Text | Print | Product List | Glossary Off
Versions: 1 2 3 4 5 6 7 8 9 10 11 12 13 14 15 16 17 18 19 20 21 22 23 24 25 26 27 28 29 30 31 32 33 34 35 36 37 38 39 40 41 42 43 44 45 46 47 48 49 50

000
ASUS41 KCTP 220110
RWRCTP

REGIONAL WEATHER ROUNDUP
NATIONAL WEATHER SERVICE STATE COLLEGE PA
900 PM EDT THU AUG 21 2014

Note: "fair" indicates few or no clouds below 12,000 feet with no
significant weather and/or obstructions to visibility.

* = STATION THAT DOES NOT REPORT PRECIPITATION /E.G. RAIN...SNOW...ETC/
    THUNDER OR FOG.

PAZ002>004-007>009-013>016-020>023-029>032-220200-
WESTERN PENNSYLVANIA

CITY           SKY/WX    TMP DP  RH WIND       PRES   REMARKS
ERIE           MOCLDY    73  66  78 CALM      29.98S
MEADVILLE      MOCLDY    69  67  93 CALM      30.02R
FRANKLIN*      MOCLDY    66  63  88 SW3       30.04R
NEW CASTLE     NOT AVBL
BEAVER COUNTY  MOCLDY    72  66  83 SW6       30.03S
BUTLER*        MOCLDY    70  64  83 SW5       30.05S
PITTSBURGH INT MOCLDY    72  67  84 SW6       30.03S
PITTSBURGH     PTCLDY    71  65  81 SW9       30.03S
INDIANA*       CLOUDY    72  68  88 W8        30.08R
LATROBE        MOCLDY    72  72 100 SW9       30.05S
WASHINGTON CO* CLEAR     70  64  83 SW3       30.04F
$$

PAZ004>006-010>012-017>019-024>028-033>037-041-042-045-046-049>053-220200-
CENTRAL PENNSYLVANIA

CITY           SKY/WX    TMP DP  RH WIND       PRES   REMARKS
BRADFORD       CLOUDY    67  64  90 CALM      30.05S
DUBOIS         MOCLDY    66  65  96 SW6       30.04R FOG
CLEARFIELD     FOG       65  65 100 CALM      30.03R VSB 1/4
JOHNSTOWN      CLOUDY    68  63  84 W9        30.08R
ALTOONA        CLOUDY    71  66  84 SW5       30.04R
STATE COLLEGE  MOCLDY    66  64  94 CALM      30.03R FOG
WILLIAMSPORT   MOCLDY    72  68  87 NW3       29.96S
SELINSGROVE    MOCLDY    71  68  90 CALM      29.98F
FT INDIANTOWN  PTCLDY    72  72  99 VRB5      30.00R
CAPITAL CITY   MOCLDY    68  66  93 S5        29.99S
HARRISBURG     MOCLDY    71  68  90 CALM      29.98
YORK           CLOUDY    69  66  90 CALM      29.99S
$$

PAZ038>040-043-044-047-048-054-055-060>062-067>071-220200-
EASTERN PENNSYLVANIA

CITY           SKY/WX    TMP DP  RH WIND       PRES   REMARKS
SCRANTON       CLOUDY    76  64  66 CALM      30.00R
MOUNT POCONO   CLOUDY    69  66  90 S6        30.05S FOG
ALLENTOWN      CLOUDY    78  69  73 S7        29.99S
QUAKERTOWN*    MOCLDY    75  70  83 MISG      30.01R
READING        MOCLDY    76  71  85 SE5       29.98R
LANCASTER      MOCLDY    74  68  81 VRB3      30.00R
COATESVILLE    CLOUDY    72  72 100 SE6       30.01S
POTTSTOWN      MOCLDY    75  69  81 VRB6      30.01R
BLUE BELL      CLOUDY    77  70  78 S5        29.99S
DOYLESTOWN     CLOUDY    73  65  75 SE6       30.00R
WILLOW GROVE   NOT AVBL
NORTH PHILA    CLOUDY    76  64  66 VRB7      30.02R
PHILADELPHIA   CLOUDY    76  67  73 SE12      30.01R
$$


USA.gov is the U.S. government's official web portal to all federal, state and local government web resources and services.